GSAT0219 (GALILEO 23) (43566 NORAD) Tracking and Keplerian Element Data

This shows tracking and keplerian element data for the satellite.

Feedback or suggestion? Click here.




ElementValue
Catalog43566
NameGSAT0219 (GALILEO 23)
Epoch Orbit4066
Epoch Day33.14821582
Epoch Year2025
RAAN355.277
Inclination57.2937
Eccentricity0.000552
Argument of Perigee301.9902
Mean Anonmoly57.9472
Mean Motion1.70475321
Decay Rate-7.8E-07
L11 43566U 18060C 25033.14821582 -.00000078 00000+0 00000+0 0 9997
L22 43566 57.2937 355.2770 0005520 301.9902 57.9472 1.70475321 40664



Live tracking and technical data element details for GSAT0219 (GALILEO 23) (NORAD 43566). GSAT0219 (GALILEO 23) can be tracked NOW for your location showing map with azimuth and elevation plus other details from your city location.







IsCatalogInMostPopularTable: catalog: 43566, numindb: 747
Update: records affected: 1



GetName: 43566 GSAT0219 (GALILEO 23)

Hit Count: updated at: Fri, 18 Jul 2025 16:53:54 GMT